Regional Weather Roundup
Issued by NWS

Home | Current Version | Previous Version | Text Only | Print | Product List | Glossary Off
Versions: 1 2 3 4 5 6 7 8 9 10 11 12 13 14 15 16 17 18 19 20 21 22 23 24 25 26 27 28 29 30 31 32 33 34 35 36 37 38 39 40 41 42 43 44 45 46 47 48 49 50

000
ASUS45 KABQ 160310
RWRNM
NEW MEXICO REGIONAL WEATHER ROUNDUP
NATIONAL WEATHER SERVICE ALBUQUERQUE NM
800 PM MST FRI DEC 15 2017

NOTE: "FAIR" MEANS FEW OR NO CLOUDS BELOW 12,000 FEET AGL WITH NO
       SIGNIFICANT WEATHER OR OBSTRUCTIONS TO VISION.

      THIS PRODUCT IS RELEASED AS TWO VERSIONS.  ONE VERSION NEAR
      THE TOP OF THE HOUR CONTAINING PRELIMINARY DATA FROM ALBUQUERQUE
      AND OTHER STATIONS.  A FINAL VERSION WITH ADDITIONAL DATA IS
      ISSUED ABOUT 10 MINUTES AFTER THE HOUR.

NMZ501-503-504-510>518-160400-
NORTHWEST PLATEAU/NORTHCENTRAL MOUNTAINS

CITY           SKY/WX    TMP DP  RH WIND       PRES   REMARKS
FARMINGTON     FAIR      25   5  42 NE5       30.13F WCI  19
LOS ALAMOS     FAIR      37  12  35 CALM      30.13S
SANTA FE       FAIR      32  14  47 NW6       30.11S WCI  26
TAOS           FAIR      19  -1  41 NE6       30.15F WCI  11
ANGEL FIRE     FAIR      23   1  39 CALM      30.14S

$$
NMZ402-403-502-505>509-160400-
WESTCENTRAL MOUNTAINS/SOUTHWEST MOUNTAINS

CITY           SKY/WX    TMP DP  RH WIND       PRES   REMARKS
GALLUP         FAIR      25   0  33 CALM      30.15S
GRANTS         FAIR      28  -9  19 NW7       30.16S WCI  20
SILVER CITY    FAIR      24   9  54 N3        30.17F

$$
NMZ407-409-411-412-160400-
SOUTHERN DESERTS

CITY           SKY/WX    TMP DP  RH WIND       PRES   REMARKS
DEMING         FAIR      35  18  49 SW6       30.18S WCI  30
LAS CRUCES     FAIR      37  19  48 SW6       30.18S WCI  32
HOLLOMAN AFB   FAIR      32  13  46 E6        30.18F WCI  26
ALAMOGORDO     FAIR      32  14  47 SE5       30.17S WCI  27
T OR C         FAIR      41  16  36 SW5       30.15S

$$
NMZ519>523-160400-
CENTRAL VALLEYS/CENTRAL HIGHLANDS

CITY           SKY/WX    TMP DP  RH WIND       PRES   REMARKS
ALBUQUERQUE    FAIR      36  12  37 CALM      30.13F
DOUBLE EAGLE   CLEAR     27  10  50 SW5       30.14S WCI  21
MORIARTY ARPT  FAIR      23   6  49 NE5       30.12S WCI  16
CLINES CORNERS FAIR      29  11  47 W16       30.09F WCI  17
BELEN          FAIR      32  13  46 S5        30.13F WCI  27
SOCORRO        FAIR      34  15  45 S7        30.14F WCI  28

$$
NMZ524>526-539-540-160400-
SOUTHCENTRAL MOUNTAINS

CITY           SKY/WX    TMP DP  RH WIND       PRES   REMARKS
RUIDOSO        FAIR      32   5  32 W8        30.14F WCI  25

$$
NMZ527>531-160400-
NORTHEAST HIGHLANDS/NORTHEAST PLAINS

CITY           SKY/WX    TMP DP  RH WIND       PRES   REMARKS
LAS VEGAS      FAIR      36   3  25 CALM      30.04S
RATON          FAIR      29   9  43 NW5       30.00F WCI  24
CLAYTON        FAIR      37  13  37 W12       29.96F WCI  29

$$
NMZ532>537-160400-
EASTCENTRAL PLAINS

CITY           SKY/WX    TMP DP  RH WIND       PRES   REMARKS
SANTA ROSA     FAIR      37  12  34 S9        30.02F WCI  31
TUCUMCARI      FAIR      41  22  46 SW16      29.99F
CANNON AFB     CLEAR     31  21  65 SW9       30.08F WCI  23
CLOVIS AIRPORT FAIR      30  20  66 SW9       30.08F WCI  22

$$
NMZ028-029-538-160400-
SOUTHEAST PLAINS

CITY           SKY/WX    TMP DP  RH WIND       PRES   REMARKS
ROSWELL        FAIR      34  21  59 S8        30.09F WCI  27
ARTESIA        FAIR      39  21  48 S13       30.13S WCI  32
CARLSBAD       FAIR      39  26  59 S13       30.13F WCI  31
HOBBS          FAIR      30  21  69 SW9       30.15S WCI  22


$$




USA.gov is the U.S. government's official web portal to all federal, state and local government web resources and services.